CST,Max TemperatureF,Mean TemperatureF,Min TemperatureF,Max Dew PointF,MeanDew PointF,Min DewpointF,Max Humidity, Mean Humidity, Min Humidity, Max Sea Level PressureIn, Mean Sea Level PressureIn, Min Sea Level PressureIn, Max VisibilityMiles, Mean VisibilityMiles, Min VisibilityMiles, Max Wind SpeedMPH, Mean Wind SpeedMPH, Max Gust SpeedMPH,PrecipitationIn, CloudCover, Events, WindDirDegrees
2012-11-1,57,42,26,36,28,22,85,56,27,29.98,29.92,29.86,10,10,9,17,8,23,0.00,2,,268
2012-11-2,52,42,32,35,30,26,89,64,39,30.13,30.05,29.89,10,10,8,15,8,18,0.00,0,,13
2012-11-3,42,36,30,38,34,29,89,81,73,30.22,30.17,30.13,10,10,5,15,9,18,0.14,5,Rain,53
2012-11-4,49,39,28,36,31,27,92,74,56,30.26,30.22,30.20,10,9,4,12,6,15,0.00,3,,351
2012-11-5,47,39,30,33,30,28,92,71,49,30.20,30.16,30.11,10,10,9,15,6,17,0.00,3,,61
2012-11-6,46,38,29,41,36,26,96,81,65,30.11,29.97,29.89,8,4,2,12,6,14,0.11,7,Rain,173
2012-11-7,45,42,38,41,39,37,100,88,76,30.19,30.02,29.88,9,5,1,13,6,15,0.00,8,,332
2012-11-8,49,42,35,40,37,34,92,79,65,30.26,30.19,30.12,10,6,2,14,5,17,0.00,5,,181
2012-11-9,63,49,34,49,41,33,92,74,56,30.14,30.06,29.97,10,8,3,21,11,25,0.00,1,,154
2012-11-10,74,63,51,52,48,45,89,62,35,30.05,30.01,29.94,10,10,8,29,17,37,0.00,2,,176
2012-11-11,69,56,43,55,49,41,100,79,57,30.02,29.95,29.83,10,8,4,41,21,52,0.55,6,Rain,207
2012-11-12,43,36,29,39,28,23,96,78,59,30.42,30.22,30.00,10,9,5,25,15,32,0.20,3,Rain-Snow,264
2012-11-13,42,33,24,26,24,21,88,67,46,30.55,30.50,30.43,10,10,9,9,4,,0.00,0,,258
2012-11-14,43,35,26,29,26,23,85,69,53,30.56,30.48,30.40,10,10,9,12,5,15,0.00,0,,98
2012-11-15,48,37,25,31,27,23,92,71,49,30.43,30.39,30.36,10,7,2,6,2,7,0.00,0,,71
2012-11-16,53,40,27,33,28,25,92,67,41,30.50,30.47,30.41,10,8,3,7,3,9,0.00,0,,94
2012-11-17,56,42,28,36,31,25,89,66,43,30.57,30.50,30.45,10,8,4,14,7,16,0.00,0,,93
2012-11-18,60,45,30,36,32,26,85,61,37,30.45,30.40,30.35,10,9,6,10,6,16,0.00,0,,123
2012-11-19,58,46,34,42,37,30,89,68,47,30.33,30.25,30.14,10,10,8,15,7,20,T,3,,158
2012-11-20,60,54,47,48,44,41,83,72,60,30.19,30.13,30.09,10,9,5,9,4,12,0.00,8,,316
2012-11-21,62,48,34,47,41,34,100,80,60,30.28,30.22,30.17,8,2,0,10,5,14,0.00,0,Fog,236
2012-11-22,63,53,42,51,45,41,93,77,60,30.16,30.05,29.92,10,5,2,28,17,33,0.10,2,Rain-Thunderstorm,188
2012-11-23,49,35,21,38,25,17,85,69,52,30.29,30.17,30.02,10,10,10,35,19,41,0.00,1,,287
2012-11-24,31,27,22,24,20,17,84,74,63,30.33,30.23,30.07,10,10,8,15,8,18,0.00,4,,242
2012-11-25,47,39,30,31,27,23,78,62,45,30.10,29.98,29.92,10,10,10,17,9,22,0.00,2,,244
2012-11-26,44,36,27,27,24,19,85,64,43,30.36,30.24,30.10,10,10,3,18,10,22,T,4,Snow,359
2012-11-27,38,28,18,22,18,14,88,64,40,30.45,30.37,30.34,10,10,8,10,7,23,0.00,1,,285
2012-11-28,47,34,21,25,22,18,92,67,42,30.44,30.39,30.33,10,9,6,10,7,12,0.00,0,,223
2012-11-29,54,40,26,34,29,22,81,64,46,30.33,30.23,30.13,10,10,8,22,13,26,0.00,0,,177
2012-11-30,60,47,34,38,34,28,85,63,40,30.14,30.12,30.07,10,10,9,20,10,24,0.00,0,,191